Weather History for KSGU - May, 2013

Change the Weather History Date:

Thursday, May 2, 2013

  Actual Average Record
Temperature  
Mean Temperature 64 °F -  
Max Temperature 78 °F 82 °F 99 °F (1947)
Min Temperature 50 °F 49 °F 35 °F (1951)
Degree Days  
Heating Degree Days 1    
Growing Degree Days 14 (Base 50)    
Moisture  
Dew Point 11 °F    
Average Humidity 13    
Maximum Humidity 17    
Minimum Humidity 10    
Precipitation  
Precipitation 0.00 in - - ()
Sea Level Pressure  
Sea Level Pressure 30.42 in    
Wind  
Wind Speed 19 mph (NE)    
Max Wind Speed 36 mph    
Max Gust Speed 50 mph    
Visibility 10 miles    
Events      
Averages and records for this station are not official NWS values.
T = Trace of Precipitation, MM = Missing Value Source: NWS Daily Summary

Daily Weather History Graph

Daily Weather History Graph

Search for Another Location

Airport or City:

Trip Planner

Search our weather history database for the weather conditions in past years. The results will help you decide how hot, cold, wet, or windy it might be!

Date:

Astronomy

May. 02, 2013 Rise Set
Actual Time 6:38 AM MDT 8:24 PM MDT
Civil Twilight 6:10 AM MDT 8:52 PM MDT
Nautical Twilight 5:36 AM MDT 9:26 PM MDT
Astronomical Twilight 5:00 AM MDT 10:03 PM MDT
Moon 2:18 AM MDT (5/2) 1:28 PM MDT (5/2)
Length of Visible Light 14h 42m
Length of Day
13h 46m
Waning Gibbous, 47% of the Moon is Illuminated
May 2
Waning Gibbous
May 9
New
May 17
First Quarter
May 24
Full
May 31
Last Quarter

Hourly Weather History & Observations

Time (MDT) Temp. Dew Point Humidity Pressure Visibility Wind Dir Wind Speed Gust Speed Precip Events Conditions
12:15 AM 55.4 °F 8.6 °F 15% 30.45 in 10.0 mi NNE 25.3 mph 32.2 mph N/A   Clear
12:55 AM 55.4 °F 8.6 °F 15% 30.47 in 10.0 mi NE 29.9 mph 38.0 mph N/A   Clear
1:15 AM 55.4 °F 8.6 °F 15% 30.47 in 10.0 mi NE 32.2 mph 41.4 mph N/A   Clear
1:35 AM 55.4 °F 6.8 °F 14% 30.47 in 10.0 mi NE 32.2 mph 39.1 mph N/A   Clear
1:55 AM 53.6 °F 6.8 °F 15% 30.47 in 10.0 mi NE 31.1 mph 39.1 mph N/A   Clear
2:15 AM 53.6 °F 6.8 °F 15% 30.46 in 10.0 mi NE 31.1 mph 41.4 mph N/A   Clear
2:35 AM 55.4 °F 6.8 °F 14% 30.46 in 10.0 mi NE 31.1 mph 49.5 mph N/A   Clear
2:55 AM 53.6 °F 5.0 °F 14% 30.46 in 10.0 mi NE 32.2 mph 42.6 mph N/A   Clear
3:35 AM 53.6 °F 5.0 °F 14% 30.46 in 10.0 mi NE 33.4 mph 38.0 mph N/A   Clear
3:55 AM 53.6 °F 6.8 °F 15% 30.46 in 10.0 mi NE 35.7 mph 42.6 mph N/A   Clear
4:35 AM 53.6 °F 6.8 °F 15% 30.49 in 10.0 mi NE 32.2 mph 39.1 mph N/A   Clear
4:55 AM 51.8 °F 6.8 °F 16% 30.50 in 10.0 mi North 9.2 mph 26.5 mph N/A   Clear
5:35 AM 51.8 °F 6.8 °F 16% 30.51 in 10.0 mi NE 10.4 mph 18.4 mph N/A   Clear
5:55 AM 51.8 °F 6.8 °F 16% 30.50 in 10.0 mi NE 19.6 mph 27.6 mph N/A   Clear
6:15 AM 50.0 °F 6.8 °F 17% 30.51 in 10.0 mi NE 23.0 mph 32.2 mph N/A   Clear
6:35 AM 50.0 °F 6.8 °F 17% 30.52 in 10.0 mi NE 20.7 mph 28.8 mph N/A   Clear
7:15 AM 51.8 °F 6.8 °F 16% 30.53 in 10.0 mi NE 21.9 mph 27.6 mph N/A   Clear
7:35 AM 51.8 °F 6.8 °F 16% 30.54 in 10.0 mi NE 23.0 mph 29.9 mph N/A   Clear
7:55 AM 51.8 °F 6.8 °F 16% 30.55 in 10.0 mi NE 16.1 mph 25.3 mph N/A   Clear
8:15 AM 53.6 °F 6.8 °F 15% 30.56 in 10.0 mi ENE 13.8 mph 18.4 mph N/A   Clear
8:35 AM 55.4 °F 6.8 °F 14% 30.55 in 10.0 mi NE 10.4 mph - N/A   Clear
8:55 AM 55.4 °F 6.8 °F 14% 30.56 in 10.0 mi NE 13.8 mph - N/A   Clear
9:15 AM 57.2 °F 6.8 °F 13% 30.56 in 10.0 mi NNE 10.4 mph - N/A   Clear
9:35 AM 57.2 °F 6.8 °F 13% 30.55 in 10.0 mi NE 15.0 mph 24.2 mph N/A   Clear
9:55 AM 59.0 °F 8.6 °F 14% 30.55 in 10.0 mi NE 17.3 mph 20.7 mph N/A   Clear
10:15 AM 60.8 °F 8.6 °F 13% 30.54 in 10.0 mi NE 13.8 mph 20.7 mph N/A   Clear
10:35 AM 60.8 °F 8.6 °F 13% 30.53 in 10.0 mi NNE 12.7 mph 17.3 mph N/A   Clear
10:55 AM 62.6 °F 8.6 °F 12% 30.52 in 10.0 mi ENE 10.4 mph 21.9 mph N/A   Clear
12:35 PM 66.2 °F 10.4 °F 11% 30.47 in 10.0 mi NNE 11.5 mph - N/A   Clear
12:55 PM 68.0 °F 12.2 °F 12% 30.45 in 10.0 mi NNE 13.8 mph 19.6 mph N/A   Clear
1:15 PM 69.8 °F 12.2 °F 11% 30.44 in 10.0 mi NNE 12.7 mph 17.3 mph N/A   Clear
1:35 PM 71.6 °F 12.2 °F 10% 30.43 in 10.0 mi NNE 13.8 mph 18.4 mph N/A   Clear
1:55 PM 71.6 °F 14.0 °F 11% 30.41 in 10.0 mi NNE 10.4 mph 18.4 mph N/A   Clear
2:15 PM 73.4 °F 15.8 °F 11% 30.40 in 10.0 mi East 11.5 mph 17.3 mph N/A   Clear
2:35 PM 73.4 °F 15.8 °F 11% 30.39 in 10.0 mi NNE 8.1 mph - N/A   Clear
3:55 PM 73.4 °F 15.8 °F 11% 30.35 in 10.0 mi WNW 6.9 mph - N/A   Clear
4:15 PM 75.2 °F 15.8 °F 11% 30.34 in 10.0 mi Calm Calm - N/A   Clear
4:35 PM 78.8 °F 17.6 °F 10% 30.33 in 10.0 mi NNE 5.8 mph 17.3 mph N/A   Clear
4:55 PM 78.8 °F 19.4 °F 11% 30.32 in 10.0 mi ENE 5.8 mph - N/A   Clear
5:15 PM 78.8 °F 17.6 °F 10% 30.31 in 10.0 mi South 3.5 mph - N/A   Clear
5:35 PM 78.8 °F 17.6 °F 10% 30.31 in 10.0 mi NNE 10.4 mph - N/A   Clear
6:15 PM 77.0 °F 17.6 °F 11% 30.30 in 10.0 mi Calm Calm - N/A   Clear
6:35 PM 78.8 °F 17.6 °F 10% 30.29 in 10.0 mi East 6.9 mph - N/A   Clear
6:55 PM 77.0 °F 17.6 °F 11% 30.28 in 10.0 mi Calm Calm - N/A   Clear
7:15 PM 78.8 °F 17.6 °F 10% 30.28 in 10.0 mi Calm Calm - N/A   Clear
7:35 PM 75.2 °F 17.6 °F 11% 30.28 in 10.0 mi SE 10.4 mph - N/A   Clear
7:55 PM 75.2 °F 17.6 °F 11% 30.27 in 10.0 mi SE 12.7 mph - N/A   Clear
8:15 PM 73.4 °F 15.8 °F 11% 30.27 in 10.0 mi SE 12.7 mph - N/A   Clear
8:35 PM 71.6 °F 12.2 °F 10% 30.28 in 10.0 mi SE 12.7 mph - N/A   Clear
9:15 PM 69.8 °F 12.2 °F 11% 30.30 in 10.0 mi ESE 9.2 mph - N/A   Clear
9:35 PM 66.2 °F 10.4 °F 11% 30.30 in 10.0 mi ESE 6.9 mph - N/A   Clear
9:55 PM 64.4 °F 8.6 °F 11% 30.31 in 10.0 mi ESE 6.9 mph - N/A   Clear
10:15 PM 62.6 °F 6.8 °F 11% 30.31 in 10.0 mi East 10.4 mph - N/A   Clear
10:35 PM 62.6 °F 6.8 °F 11% 30.31 in 10.0 mi East 8.1 mph - N/A   Clear
10:55 PM 62.6 °F 8.6 °F 12% 30.31 in 10.0 mi East 4.6 mph - N/A   Clear
11:15 PM 64.4 °F 8.6 °F 11% 30.31 in 10.0 mi Calm Calm - N/A   Clear
11:35 PM 64.4 °F 10.4 °F 12% 30.31 in 10.0 mi NE 4.6 mph - N/A   Clear
11:55 PM 62.6 °F 10.4 °F 13% 30.31 in 10.0 mi NE 3.5 mph - N/A   Clear